BAW223 EGLL-KBNA

Flight info

Callsign BAW223
Flight time N/A
Altitude 36000
Route ULTIB1J ULTIB T420 TNT UL28 PENIL M144 BAGSO DCT DOGAL/M085F370 NATC 54N020W/M085F360 NATC ELSIR/N0488F380 DCT MIILS DCT KJOHN/N0496F400 DCT ALB J49 PSB Q71 GEFFS DCT HVQ Q68 YOCKY DCT GROAT PASLY4
Aircraft A35K/H-SBDE1E2E3GHIJ1J3J4J5J6M1M2P2RWXYZ/LB1D1

Departure

Time 2026-05-07 14:30
Airport London Heathrow Airport (EGLL)

Arrival

Time N/A
Airport Nashville International Airport (KBNA)
Time Latitude Longitude Altitude Speed Heading
2026-05-07 14:00 51.47438 -0.46515 93 ft 0 kts 165°
2026-05-07 14:16 51.47454 -0.46522 94 ft 3 kts 165°
2026-05-07 14:16 51.47472 -0.46530 93 ft 3 kts 165°
2026-05-07 14:17 51.47491 -0.46536 94 ft 3 kts 179°
2026-05-07 14:17 51.47509 -0.46534 94 ft 3 kts 196°
2026-05-07 14:17 51.47514 -0.46532 94 ft 0 kts 201°
2026-05-07 14:18 51.47505 -0.46544 93 ft 3 kts 226°
2026-05-07 14:18 51.47507 -0.46594 94 ft 8 kts 283°
2026-05-07 14:18 51.47511 -0.46631 96 ft 0 kts 275°
2026-05-07 14:23 51.47511 -0.46639 93 ft 2 kts 275°
2026-05-07 14:23 51.47505 -0.46733 95 ft 15 kts 257°
2026-05-07 14:23 51.47464 -0.46870 95 ft 13 kts 204°
2026-05-07 14:24 51.47374 -0.46872 95 ft 13 kts 178°
2026-05-07 14:24 51.47279 -0.46868 95 ft 14 kts 179°
2026-05-07 14:24 51.47173 -0.46868 93 ft 18 kts 180°
2026-05-07 14:24 51.47023 -0.46866 93 ft 23 kts 180°
2026-05-07 14:25 51.46864 -0.46865 93 ft 23 kts 180°
2026-05-07 14:25 51.46754 -0.46951 96 ft 15 kts 265°
2026-05-07 14:25 51.46747 -0.47117 96 ft 16 kts 270°
2026-05-07 14:25 51.46746 -0.47304 96 ft 17 kts 270°
2026-05-07 14:26 51.46746 -0.47498 96 ft 18 kts 270°
2026-05-07 14:26 51.46745 -0.47704 95 ft 19 kts 269°
2026-05-07 14:26 51.46743 -0.47915 93 ft 19 kts 269°
2026-05-07 14:26 51.46742 -0.48136 93 ft 20 kts 269°
2026-05-07 14:27 51.46742 -0.48156 93 ft 0 kts 269°
2026-05-07 14:27 51.46742 -0.48182 93 ft 8 kts 269°
2026-05-07 14:27 51.46741 -0.48354 93 ft 21 kts 269°
2026-05-07 14:28 51.46740 -0.48588 93 ft 21 kts 270°
2026-05-07 14:28 51.46687 -0.48732 95 ft 13 kts 197°
2026-05-07 14:28 51.46600 -0.48772 95 ft 14 kts 197°
2026-05-07 14:28 51.46509 -0.48763 95 ft 13 kts 148°
2026-05-07 14:29 51.46478 -0.48643 96 ft 12 kts 94°
2026-05-07 14:29 51.46477 -0.48529 97 ft 0 kts 90°
2026-05-07 14:29 51.46477 -0.48524 97 ft 7 kts 90°
2026-05-07 14:30 51.46478 -0.48063 93 ft 76 kts 90°
2026-05-07 14:30 51.46484 -0.46864 97 ft 136 kts 90°
2026-05-07 14:30 51.46487 -0.45087 126 ft 183 kts 89°
2026-05-07 14:30 51.46582 -0.43028 868 ft 178 kts 83°
2026-05-07 14:31 51.47114 -0.41233 1482 ft 190 kts 53°
2026-05-07 14:31 51.48029 -0.39509 1743 ft 214 kts 47°
2026-05-07 14:31 51.48940 -0.37896 1940 ft 232 kts 48°
2026-05-07 14:31 51.49570 -0.36759 2106 ft 244 kts 49°
2026-05-07 14:32 51.50687 -0.34696 2692 ft 250 kts 49°
2026-05-07 14:32 51.51734 -0.32494 3363 ft 252 kts 61°
2026-05-07 14:32 51.52386 -0.29829 3978 ft 257 kts 73°
2026-05-07 14:32 51.52937 -0.27102 4515 ft 264 kts 71°
2026-05-07 14:33 51.53806 -0.24503 5076 ft 269 kts 49°
2026-05-07 14:33 51.55307 -0.22757 5649 ft 271 kts 21°
2026-05-07 14:33 51.57156 -0.22295 5954 ft 271 kts 354°
2026-05-07 14:33 51.59017 -0.22766 6014 ft 273 kts 347°
2026-05-07 14:34 51.60880 -0.23423 6020 ft 274 kts 345°
2026-05-07 14:34 51.62639 -0.24555 6026 ft 272 kts 329°
2026-05-07 14:34 51.64269 -0.26117 6025 ft 272 kts 327°
2026-05-07 14:34 51.65865 -0.27697 6026 ft 272 kts 327°
2026-05-07 14:35 51.67507 -0.29310 6177 ft 273 kts 327°
2026-05-07 14:35 51.69126 -0.30888 6636 ft 275 kts 328°
2026-05-07 14:35 51.70773 -0.32477 7325 ft 277 kts 328°
2026-05-07 14:35 51.72423 -0.34069 7997 ft 280 kts 328°
2026-05-07 14:36 51.74107 -0.35691 8701 ft 283 kts 328°
2026-05-07 14:36 51.75802 -0.37327 9405 ft 286 kts 328°
2026-05-07 14:36 51.77532 -0.39003 10088 ft 291 kts 328°
2026-05-07 14:36 51.79294 -0.40712 10524 ft 302 kts 328°
2026-05-07 14:37 51.81143 -0.42506 10818 ft 319 kts 328°
2026-05-07 14:37 51.85158 -0.46391 11415 ft 351 kts 328°
2026-05-07 14:37 51.87270 -0.48443 11679 ft 366 kts 328°
2026-05-07 14:38 51.89493 -0.50603 12069 ft 377 kts 328°
2026-05-07 14:38 51.91740 -0.52790 12627 ft 382 kts 328°
2026-05-07 14:38 51.94070 -0.55062 13234 ft 387 kts 328°
2026-05-07 14:38 51.96346 -0.57279 13818 ft 391 kts 328°
2026-05-07 14:39 51.98698 -0.59573 14389 ft 394 kts 328°
2026-05-07 14:39 52.01034 -0.61860 14928 ft 397 kts 328°
2026-05-07 14:39 52.03435 -0.64215 15482 ft 400 kts 328°
2026-05-07 14:39 52.05816 -0.66553 16071 ft 402 kts 328°
2026-05-07 14:40 52.08210 -0.68906 16609 ft 405 kts 327°
2026-05-07 14:40 52.10633 -0.71292 17181 ft 408 kts 327°
2026-05-07 14:40 52.13072 -0.73695 17747 ft 411 kts 327°
2026-05-07 14:40 52.15487 -0.76068 18332 ft 413 kts 327°
2026-05-07 14:41 52.18013 -0.78560 18860 ft 417 kts 327°
2026-05-07 14:41 52.20486 -0.81007 19346 ft 420 kts 327°
2026-05-07 14:41 52.23007 -0.83507 19848 ft 423 kts 327°
2026-05-07 14:41 52.25511 -0.85991 20374 ft 426 kts 327°
2026-05-07 14:42 52.28075 -0.88530 20896 ft 429 kts 327°
2026-05-07 14:42 52.30620 -0.91060 21413 ft 433 kts 327°
2026-05-07 14:42 52.33205 -0.93637 21943 ft 436 kts 327°
2026-05-07 14:42 52.35811 -0.96239 22494 ft 439 kts 327°
2026-05-07 14:43 52.38402 -0.98828 23035 ft 442 kts 327°
2026-05-07 14:43 52.41053 -1.01480 23552 ft 446 kts 327°
2026-05-07 14:43 52.43702 -1.04132 23982 ft 449 kts 327°
2026-05-07 14:43 52.46382 -1.06819 24396 ft 453 kts 327°
2026-05-07 14:44 52.49049 -1.09497 24804 ft 457 kts 327°
2026-05-07 14:44 52.51795 -1.12248 25219 ft 460 kts 327°
2026-05-07 14:44 52.54532 -1.15002 25626 ft 464 kts 327°
2026-05-07 14:44 52.57304 -1.17796 26030 ft 467 kts 328°
2026-05-07 14:45 52.60070 -1.20588 26439 ft 471 kts 328°
2026-05-07 14:45 52.62841 -1.23390 26822 ft 474 kts 328°
2026-05-07 14:45 52.65656 -1.26241 27243 ft 477 kts 328°
2026-05-07 14:45 52.68518 -1.29144 27646 ft 480 kts 328°
2026-05-07 14:46 52.71352 -1.32020 28033 ft 484 kts 328°
2026-05-07 14:46 52.74250 -1.34962 28440 ft 488 kts 328°
2026-05-07 14:46 52.77162 -1.37930 28817 ft 491 kts 328°
2026-05-07 14:46 52.80063 -1.40896 29166 ft 494 kts 328°
2026-05-07 14:47 52.82977 -1.43880 29493 ft 498 kts 328°
2026-05-07 14:47 52.85956 -1.46934 29837 ft 501 kts 328°
2026-05-07 14:47 52.88916 -1.49972 30139 ft 504 kts 328°
2026-05-07 14:47 52.91892 -1.53032 30441 ft 506 kts 328°
2026-05-07 14:48 52.94849 -1.56077 30844 ft 505 kts 328°
2026-05-07 14:48 52.97870 -1.59192 31258 ft 504 kts 328°
2026-05-07 14:48 53.00845 -1.62265 31621 ft 504 kts 328°
2026-05-07 14:48 53.03803 -1.65325 31983 ft 504 kts 328°
2026-05-07 14:49 53.06789 -1.68418 32337 ft 504 kts 328°
2026-05-07 14:49 53.09763 -1.71499 32667 ft 504 kts 328°
2026-05-07 14:49 53.12717 -1.74574 33025 ft 504 kts 328°
2026-05-07 14:49 53.15683 -1.77669 33380 ft 503 kts 328°
2026-05-07 14:50 53.18641 -1.80794 33700 ft 503 kts 326°
2026-05-07 14:50 53.21422 -1.84360 34010 ft 503 kts 318°
2026-05-07 14:50 53.23870 -1.88582 34315 ft 502 kts 308°
2026-05-07 14:50 53.25835 -1.93271 34606 ft 499 kts 298°
2026-05-07 14:51 53.27474 -1.98335 34950 ft 496 kts 296°
2026-05-07 14:51 53.29051 -2.03514 35266 ft 494 kts 295°
2026-05-07 14:51 53.30578 -2.08664 35540 ft 493 kts 295°
2026-05-07 14:51 53.32093 -2.13830 35814 ft 492 kts 295°
2026-05-07 14:52 53.33575 -2.18899 36018 ft 493 kts 295°
2026-05-07 14:52 53.35090 -2.24155 36044 ft 497 kts 292°
2026-05-07 14:52 53.37420 -2.35082 36043 ft 498 kts 286°
2026-05-07 14:53 53.39527 -2.46072 36047 ft 497 kts 285°
2026-05-07 14:53 53.41595 -2.57082 36037 ft 497 kts 285°
2026-05-07 14:54 53.43657 -2.68087 36020 ft 497 kts 285°
2026-05-07 14:54 53.45733 -2.79202 36022 ft 497 kts 285°
2026-05-07 14:55 53.47791 -2.90263 36019 ft 497 kts 285°
2026-05-07 14:55 53.49848 -3.01361 36021 ft 497 kts 285°
2026-05-07 14:56 53.51883 -3.12446 36021 ft 496 kts 285°
2026-05-07 14:56 53.53899 -3.23504 36021 ft 496 kts 285°
2026-05-07 14:57 53.55925 -3.34667 36016 ft 496 kts 285°
2026-05-07 14:57 53.57923 -3.45741 36013 ft 496 kts 284°
2026-05-07 14:58 53.59915 -3.56816 36008 ft 496 kts 284°
2026-05-07 14:58 53.61569 -3.67982 36000 ft 492 kts 274°
2026-05-07 14:59 53.62195 -3.79486 35996 ft 491 kts 271°
2026-05-07 14:59 53.62654 -3.90887 35994 ft 491 kts 271°
2026-05-07 15:00 53.63021 -4.00494 35992 ft 491 kts 271°
2026-05-07 15:00 53.63463 -4.12015 35990 ft 490 kts 271°
2026-05-07 15:01 53.63906 -4.23522 35991 ft 490 kts 271°
2026-05-07 15:01 53.64330 -4.34896 35991 ft 490 kts 271°
2026-05-07 15:02 53.64750 -4.46394 35985 ft 489 kts 270°
2026-05-07 15:02 53.65153 -4.57763 35981 ft 489 kts 270°
2026-05-07 15:03 53.65541 -4.69193 35982 ft 488 kts 270°
2026-05-07 15:03 53.65920 -4.80615 35979 ft 488 kts 270°
2026-05-07 15:04 53.66299 -4.92037 35981 ft 488 kts 270°
2026-05-07 15:04 53.66665 -5.03494 35977 ft 487 kts 270°
2026-05-07 15:05 53.67014 -5.14812 35977 ft 487 kts 270°
2026-05-07 15:05 53.67357 -5.26213 35974 ft 486 kts 270°
2026-05-07 15:06 53.67674 -5.37615 35971 ft 486 kts 270°
2026-05-07 15:06 53.67982 -5.48989 35970 ft 485 kts 269°
2026-05-07 15:07 53.68535 -5.60363 35967 ft 486 kts 274°
2026-05-07 15:07 53.69467 -5.71607 35961 ft 486 kts 275°
2026-05-07 15:08 53.70375 -5.82935 35956 ft 485 kts 274°
2026-05-07 15:08 53.71191 -5.94151 35950 ft 485 kts 274°
2026-05-07 15:09 53.71974 -6.05474 35944 ft 484 kts 273°
2026-05-07 15:09 53.72727 -6.16529 35942 ft 484 kts 273°
2026-05-07 15:10 53.73485 -6.27762 35938 ft 483 kts 273°
2026-05-07 15:10 53.74241 -6.39115 35933 ft 483 kts 273°
2026-05-07 15:11 53.74978 -6.50356 35932 ft 482 kts 273°
2026-05-07 15:11 53.75620 -6.60257 35923 ft 482 kts 273°